TimeCDT,TemperatureF,Dew PointF,Humidity,Sea Level PressureIn,VisibilityMPH,Wind Direction,Wind SpeedMPH,Gust SpeedMPH,PrecipitationIn,Events,Conditions,WindDirDegrees,DateUTC
1:35 AM,46.4,42.8,87,29.86,10.0,SW,3.5,-,N/A,,Clear,220,2012-10-19 06:35:00
1:55 AM,46.4,42.8,87,29.86,10.0,SW,3.5,-,N/A,,Clear,220,2012-10-19 06:55:00
2:15 AM,50.0,41.0,71,29.85,10.0,SW,4.6,-,N/A,,Clear,230,2012-10-19 07:15:00
2:35 AM,50.0,41.0,71,29.84,10.0,SW,3.5,-,N/A,,Clear,220,2012-10-19 07:35:00
2:55 AM,50.0,41.0,71,29.84,10.0,SW,3.5,-,N/A,,Clear,230,2012-10-19 07:55:00
3:15 AM,50.0,41.0,71,29.84,10.0,Calm,Calm,-,N/A,,Clear,0,2012-10-19 08:15:00
3:35 AM,46.4,41.0,81,29.83,10.0,Calm,Calm,-,N/A,,Clear,0,2012-10-19 08:35:00
3:55 AM,46.4,41.0,81,29.83,10.0,Calm,Calm,-,N/A,,Clear,0,2012-10-19 08:55:00
4:15 AM,48.2,41.0,76,29.83,10.0,Calm,Calm,-,N/A,,Clear,0,2012-10-19 09:15:00
4:35 AM,46.4,41.0,81,29.83,10.0,Calm,Calm,-,N/A,,Clear,0,2012-10-19 09:35:00
5:15 AM,46.4,41.0,81,29.83,10.0,SW,3.5,-,N/A,,Clear,220,2012-10-19 10:15:00
5:35 AM,48.2,39.2,71,29.84,10.0,SSW,4.6,-,N/A,,Clear,210,2012-10-19 10:35:00
5:55 AM,48.2,39.2,71,29.84,10.0,SW,3.5,-,N/A,,Clear,220,2012-10-19 10:55:00
6:15 AM,46.4,39.2,76,29.84,10.0,SSW,3.5,-,N/A,,Clear,210,2012-10-19 11:15:00
6:35 AM,48.2,39.2,71,29.84,10.0,SW,4.6,-,N/A,,Scattered Clouds,220,2012-10-19 11:35:00
6:55 AM,48.2,39.2,71,29.83,10.0,SSW,4.6,-,N/A,,Overcast,210,2012-10-19 11:55:00
7:15 AM,48.2,39.2,71,29.83,10.0,SSW,3.5,-,N/A,,Scattered Clouds,210,2012-10-19 12:15:00
7:35 AM,46.4,39.2,76,29.83,10.0,South,3.5,-,N/A,,Clear,190,2012-10-19 12:35:00
7:55 AM,48.2,41.0,76,29.83,10.0,SW,3.5,-,N/A,,Clear,220,2012-10-19 12:55:00
8:15 AM,50.0,41.0,71,29.83,10.0,SW,4.6,-,N/A,,Mostly Cloudy,220,2012-10-19 13:15:00
8:35 AM,51.8,42.8,71,29.84,10.0,SW,4.6,-,N/A,,Overcast,220,2012-10-19 13:35:00
8:55 AM,53.6,42.8,67,29.84,10.0,SW,4.6,-,N/A,,Overcast,220,2012-10-19 13:55:00
9:15 AM,55.4,44.6,67,29.84,10.0,SW,4.6,-,N/A,,Overcast,230,2012-10-19 14:15:00
9:35 AM,57.2,42.8,59,29.84,10.0,SW,5.8,-,N/A,,Overcast,230,2012-10-19 14:35:00
9:55 AM,59.0,42.8,55,29.84,10.0,SW,4.6,-,N/A,,Overcast,230,2012-10-19 14:55:00
10:15 AM,60.8,42.8,52,29.84,10.0,WSW,8.1,-,N/A,,Overcast,250,2012-10-19 15:15:00
10:35 AM,62.6,41.0,45,29.84,10.0,WSW,8.1,-,N/A,,Overcast,250,2012-10-19 15:35:00
10:55 AM,62.6,37.4,39,29.84,7.0,West,10.4,-,N/A,,Overcast,260,2012-10-19 15:55:00
11:35 AM,64.4,37.4,37,29.84,7.0,WSW,8.1,16.1,N/A,,Scattered Clouds,250,2012-10-19 16:35:00
11:55 AM,66.2,35.6,32,29.84,7.0,West,8.1,20.7,N/A,,Clear,260,2012-10-19 16:55:00
12:15 PM,68.0,37.4,33,29.83,10.0,SW,11.5,17.3,N/A,,Clear,230,2012-10-19 17:15:00
12:35 PM,68.0,37.4,33,29.82,10.0,WSW,11.5,19.6,N/A,,Clear,250,2012-10-19 17:35:00
12:55 PM,69.8,39.2,33,29.81,10.0,WSW,12.7,17.3,N/A,,Clear,250,2012-10-19 17:55:00
1:15 PM,69.8,37.4,31,29.81,10.0,West,12.7,21.9,N/A,,Clear,260,2012-10-19 18:15:00
1:35 PM,69.8,37.4,31,29.80,10.0,WSW,12.7,20.7,N/A,,Clear,240,2012-10-19 18:35:00
2:15 PM,69.8,35.6,28,29.79,10.0,WSW,13.8,25.3,N/A,,Clear,250,2012-10-19 19:15:00
2:35 PM,69.8,35.6,28,29.78,10.0,West,6.9,23.0,N/A,,Clear,270,2012-10-19 19:35:00
3:15 PM,69.8,35.6,28,29.79,10.0,WSW,15.0,23.0,N/A,,Clear,250,2012-10-19 20:15:00
3:35 PM,69.8,35.6,28,29.79,10.0,West,10.4,18.4,N/A,,Clear,260,2012-10-19 20:35:00
3:55 PM,69.8,35.6,28,29.79,10.0,West,10.4,21.9,N/A,,Clear,260,2012-10-19 20:55:00
4:35 PM,68.0,37.4,33,29.79,10.0,West,10.4,16.1,N/A,,Clear,260,2012-10-19 21:35:00
4:55 PM,68.0,37.4,33,29.80,10.0,West,10.4,16.1,N/A,,Clear,280,2012-10-19 21:55:00
5:15 PM,68.0,37.4,33,29.81,10.0,West,9.2,-,N/A,,Clear,270,2012-10-19 22:15:00
5:35 PM,66.2,41.0,40,29.81,10.0,WSW,3.5,-,N/A,,Clear,250,2012-10-19 22:35:00
5:55 PM,64.4,41.0,42,29.81,10.0,West,3.5,-,N/A,,Clear,270,2012-10-19 22:55:00
6:15 PM,62.6,42.8,48,29.82,10.0,Calm,Calm,-,N/A,,Clear,0,2012-10-19 23:15:00
6:35 PM,59.0,44.6,59,29.82,10.0,Calm,Calm,-,N/A,,Clear,0,2012-10-19 23:35:00
6:55 PM,53.6,46.4,77,29.84,10.0,Calm,Calm,-,N/A,,Clear,0,2012-10-19 23:55:00
7:15 PM,53.6,46.4,77,29.84,10.0,Calm,Calm,-,N/A,,Clear,0,2012-10-20 00:15:00
7:35 PM,51.8,46.4,82,29.84,10.0,Calm,Calm,-,N/A,,Clear,0,2012-10-20 00:35:00
7:55 PM,51.8,46.4,82,29.85,10.0,Calm,Calm,-,N/A,,Clear,0,2012-10-20 00:55:00
8:15 PM,50.0,46.4,87,29.86,10.0,Calm,Calm,-,N/A,,Clear,0,2012-10-20 01:15:00
8:35 PM,50.0,44.6,82,29.86,10.0,Calm,Calm,-,N/A,,Clear,0,2012-10-20 01:35:00
8:55 PM,50.0,44.6,82,29.86,10.0,Calm,Calm,-,N/A,,Clear,0,2012-10-20 01:55:00
9:15 PM,48.2,46.4,93,29.87,10.0,Calm,Calm,-,N/A,,Clear,0,2012-10-20 02:15:00
9:55 PM,46.4,44.6,93,29.87,10.0,Calm,Calm,-,N/A,,Clear,0,2012-10-20 02:55:00
10:15 PM,46.4,44.6,93,29.87,10.0,Calm,Calm,-,N/A,,Clear,0,2012-10-20 03:15:00
10:35 PM,46.4,44.6,93,29.88,10.0,Calm,Calm,-,N/A,,Clear,0,2012-10-20 03:35:00
10:55 PM,46.4,44.6,93,29.88,10.0,Calm,Calm,-,N/A,,Clear,0,2012-10-20 03:55:00
11:15 PM,44.6,44.6,100,29.89,10.0,Calm,Calm,-,N/A,,Clear,0,2012-10-20 04:15:00
11:35 PM,44.6,44.6,100,29.89,10.0,Calm,Calm,-,N/A,,Clear,0,2012-10-20 04:35:00
11:55 PM,44.6,42.8,93,29.89,10.0,Calm,Calm,-,N/A,,Clear,0,2012-10-20 04:55:00